Location: Azul
(36.7830°S, 59.8500°W)
Time: 04:55:33
(UTC-03:00)

ISS - Pass Details

Date: 15 November 2017
Orbit: 402 x 407 km, 51.6° (Epoch: 21 November)

Event Time Altitude Azimuth Distance (km) Brightness Sun altitude
Rises 20:15:22 0° 250° (WSW) 2,357 2.4 -5.8°
Reaches altitude 10° 20:18:27 10° 281° (WNW) 1,484 -0.2 -6.4°
Maximum altitude 20:19:53 12° 307° (NW) 1,346 -0.9 -6.6°
Drops below altitude 10° 20:21:19 10° 333° (NNW) 1,474 -1.0 -6.9°
Sets 20:24:22 0° 4° (N) 2,323 -0.3 -7.4°
